User: anonymous   Login
Location: Dover
(39.1580°N, 75.5250°W)
Time: 04:08:03
(UTC-04:00)
Language:

SeaSat 1 - Orbit

View from above orbital plane
View from above orbital plane
View from above satellite
View from above satellite

Ground track
Ground track

The orbit data is extracted from the following two-line orbital elements,

1 10967U 78064A   17081.78501980 +.00000006 +00000-0 +42039-4 0  9991
2 10967 108.0112 118.8927 0002097 288.2230 071.8686 14.43630454034138
Epoch (UTC): 22 March 2017 18:50:25
Eccentricity: 0.0002097
inclination: 108.0112°
perigee height: 745 km
apogee height: 748 km
right ascension of ascending node: 118.8927°
argument of perigee: 288.2230°
revolutions per day: 14.43630454
mean anomaly at epoch: 71.8686°
orbit number at epoch: 3413

The dashed part of the orbit path shows where the satellite is in the earth's shadow,  

DLR